Weather History for Marrakech, Morocco

Change the Weather History Date:

Tuesday, November 6, 2012

  Actual Average Record
Temperature  
Mean Temperature 70 °F -  
Max Temperature 77 °F 69 °F - ()
Min Temperature 64 °F 48 °F - ()
Cooling Degree Days 6    
Growing Degree Days 20 (Base 50)    
Moisture  
Dew Point 64 °F    
Average Humidity 79    
Maximum Humidity 100    
Minimum Humidity 51    
Precipitation  
Precipitation 0.00 in 0.05 in - ()
Sea Level Pressure  
Sea Level Pressure 30.00 in    
Wind  
Wind Speed 6 mph ()    
Max Wind Speed 18 mph    
Max Gust Speed -    
Visibility 6.2 miles    
Events Rain    
T = Trace of Precipitation, MM = Missing Value Source: Averaged Metar Reports

Daily Weather History Graph

Daily Weather History Graph

Search for Another Location

Airport:

Trip Planner

Search our weather history database for the weather conditions in past years. The results will help you decide how hot, cold, wet, or windy it might be!

Date:

Astronomy

Nov. 06, 2012 Rise Set
Actual Time 6:52 AM WET 5:38 PM WET
Civil Twilight 6:27 AM WET 6:03 PM WET
Nautical Twilight 5:58 AM WET 6:32 PM WET
Astronomical Twilight 5:29 AM WET 7:01 PM WET
Moon 11:59 PM WET (11/6) 12:39 PM WET (11/6)
Length of Visible Light 11h 36m
Length of Day
10h 45m
Waning Gibbous, 55% of the Moon is Illuminated
Nov 6
Waning Gibbous
Nov 7
Last Quarter
Nov 13
New
Nov 20
First Quarter
Nov 28
Full

Hourly Weather History & Observations

Time (WET) Temp. Dew Point Humidity Pressure Visibility Wind Dir Wind Speed Gust Speed Precip Events Conditions
12:00 AM 72 °F 64 °F 68% 30.05 in 6 mi WSW 3.5 mph - -   Partly Cloudy
12:00 AM 73.4 °F 62.6 °F 69% 30.09 in 6.2 mi WSW 3.5 mph - N/A   Mostly Cloudy
12:30 AM 69.8 °F 64.4 °F 83% 30.09 in 6.2 mi South 8.1 mph - N/A Rain Rain
1:00 AM 68.0 °F 66.2 °F 94% 30.09 in 5.0 mi South 6.9 mph - N/A Rain Rain
1:30 AM 68.0 °F 64.4 °F 88% 30.06 in 6.2 mi SE 13.8 mph - N/A Rain Rain
2:00 AM 66.2 °F 64.4 °F 94% 30.01 in 6.2 mi SE 18.4 mph - N/A Rain Rain
2:30 AM 68.0 °F 62.6 °F 83% 30.01 in 6.2 mi SE 15.0 mph - N/A   Scattered Clouds
3:00 AM 67 °F 64 °F 85% 29.95 in 6 mi East 10.4 mph - -   Mostly Cloudy
3:00 AM 68.0 °F 62.6 °F 83% 30.01 in 6.2 mi East 11.5 mph - N/A   Scattered Clouds
3:30 AM 66.2 °F 64.4 °F 94% 29.98 in 6.2 mi NE 8.1 mph - N/A   Scattered Clouds
4:00 AM 66.2 °F 62.6 °F 88% 29.98 in 6.2 mi NNE 8.1 mph - N/A   Scattered Clouds
4:30 AM 66.2 °F 64.4 °F 94% 29.98 in 6.2 mi ENE 5.8 mph - N/A   Unknown
5:00 AM 66.2 °F 64.4 °F 94% 29.98 in 6.2 mi ENE 4.6 mph - N/A   Unknown
5:30 AM 66.2 °F 64.4 °F 94% 29.98 in 6.2 mi ESE 4.6 mph - N/A   Scattered Clouds
6:00 AM 67 °F 65 °F 92% 29.96 in 6 mi SE 3.5 mph - -   Mostly Cloudy
6:00 AM 66.2 °F 64.4 °F 94% 30.01 in 6.2 mi SE 2.3 mph - N/A   Scattered Clouds
6:30 AM 66.2 °F 64.4 °F 94% 30.01 in 6.2 mi East 3.5 mph - N/A   Scattered Clouds
7:00 AM 66.2 °F 66.2 °F 100% 30.01 in 6.2 mi Calm Calm - N/A   Scattered Clouds
7:30 AM 66.2 °F 64.4 °F 94% 30.01 in 6.2 mi West 3.5 mph - N/A   Scattered Clouds
8:00 AM 66.2 °F 64.4 °F 94% 30.01 in 6.2 mi West 6.9 mph - N/A   Scattered Clouds
8:30 AM 68.0 °F 64.4 °F 88% 30.01 in 6.2 mi West 6.9 mph - N/A   Scattered Clouds
9:00 AM 70 °F 62 °F 70% 29.99 in 6 mi WSW 4.6 mph - -   Mostly Cloudy
9:00 AM 69.8 °F 62.6 °F 78% 30.04 in 6.2 mi WSW 4.6 mph - N/A   Scattered Clouds
9:30 AM 71.6 °F 62.6 °F 73% 30.04 in 6.2 mi WSW 4.6 mph - N/A   Scattered Clouds
10:00 AM 73.4 °F 62.6 °F 69% 30.04 in 6.2 mi SSW 5.8 mph - N/A   Scattered Clouds
10:30 AM 73.4 °F 60.8 °F 65% 30.04 in 6.2 mi WSW 5.8 mph - N/A   Scattered Clouds
11:00 AM 75.2 °F 62.6 °F 65% 30.04 in 6.2 mi Variable 3.5 mph - N/A   Scattered Clouds
11:30 AM 75.2 °F 60.8 °F 61% 30.04 in 6.2 mi West 3.5 mph - N/A   Scattered Clouds
12:00 PM 76 °F 61 °F 51% 29.94 in 6 mi South 2.3 mph - -   Partly Cloudy
12:00 PM 77.0 °F 60.8 °F 57% 30.01 in 6.2 mi Variable 2.3 mph - N/A   Scattered Clouds
12:30 PM 77.0 °F 62.6 °F 61% 30.01 in 6.2 mi WNW 3.5 mph - N/A   Scattered Clouds
1:00 PM 77.0 °F 62.6 °F 61% 30.01 in 6.2 mi Variable 3.5 mph - N/A   Scattered Clouds
1:30 PM 78.8 °F 62.6 °F 57% 30.01 in 6.2 mi Variable 2.3 mph - N/A   Scattered Clouds
2:00 PM 75.2 °F 64.4 °F 69% 29.98 in 6.2 mi NW 4.6 mph - N/A   Scattered Clouds
2:30 PM 75.2 °F 64.4 °F 69% 30.01 in 6.2 mi NNW 8.1 mph - N/A   Scattered Clouds
3:00 PM 76 °F 62 °F 52% 29.94 in 6 mi WNW 6.9 mph - -   Mostly Cloudy
3:00 PM 75.2 °F 62.6 °F 65% 30.01 in 6.2 mi NW 6.9 mph - N/A   Scattered Clouds
3:30 PM 75.2 °F 64.4 °F 69% 30.01 in 6.2 mi WNW 4.6 mph - N/A   Scattered Clouds
4:00 PM 75.2 °F 62.6 °F 65% 29.98 in 6.2 mi ESE 4.6 mph - N/A   Scattered Clouds
4:30 PM 75.2 °F 62.6 °F 65% 29.98 in 6.2 mi East 8.1 mph - N/A   Scattered Clouds
5:00 PM 75.2 °F 62.6 °F 65% 29.95 in 6.2 mi ESE 15.0 mph - N/A   Scattered Clouds
5:30 PM 75.2 °F 64.4 °F 69% 29.95 in 6.2 mi East 9.2 mph - N/A   Scattered Clouds
6:00 PM 72 °F 65 °F 71% 29.88 in 6 mi East 6.9 mph - -   Partly Cloudy
6:00 PM 71.6 °F 64.4 °F 78% 29.95 in 6.2 mi East 8.1 mph - N/A   Scattered Clouds
6:30 PM 71.6 °F 64.4 °F 78% 29.95 in 6.2 mi ENE 5.8 mph - N/A   Scattered Clouds
7:00 PM 71.6 °F 64.4 °F 78% 29.95 in 6.2 mi NE 6.9 mph - N/A   Scattered Clouds
7:30 PM 71.6 °F 64.4 °F 78% 29.95 in 6.2 mi NE 10.4 mph - N/A   Scattered Clouds
8:00 PM 71.6 °F 64.4 °F 78% 29.95 in 6.2 mi NE 4.6 mph - N/A   Scattered Clouds
8:30 PM 69.8 °F 64.4 °F 83% 29.98 in 6.2 mi Calm Calm - N/A   Scattered Clouds
9:00 PM 70 °F 64 °F 77% 29.93 in 6 mi Calm Calm - -   Partly Cloudy
9:00 PM 69.8 °F 64.4 °F 83% 29.98 in 6.2 mi Calm Calm - N/A   Scattered Clouds
9:30 PM 68.0 °F 64.4 °F 88% 30.01 in 6.2 mi SW 6.9 mph - N/A   Scattered Clouds
10:00 PM 66.2 °F 64.4 °F 94% 29.98 in 6.2 mi WSW 5.8 mph - N/A   Scattered Clouds
10:30 PM 66.2 °F 64.4 °F 94% 29.98 in 6.2 mi WSW 8.1 mph - N/A   Scattered Clouds
11:00 PM 64.4 °F 64.4 °F 100% 30.01 in 6.2 mi WSW 6.9 mph - N/A   Scattered Clouds
11:30 PM 64.4 °F 64.4 °F 100% 30.01 in 6.2 mi WSW 5.8 mph - N/A   Unknown
11:31 PM 64.4 °F 64.4 °F 100% 30.01 in 6.2 mi WSW 5.8 mph - N/A   Unknown